When you browse on this site, cookies collect data to enhance your experience and personalize the content and advertising you see.
Visit our Privacy Policy to learn more. By continuing to use the site, you agree to this use of cookies and data.
  • In Hungary
  • List of Countries
  • For 7 days
  • Water Temperature
  • Weather Map
  • News
  • Weather Widgets
  • user-avatar
    Login

    Hourly Weather Liverpool

    Today, 4 June, Thursday

    Time Temperature Precipitation Wind Pressure Humidity
    00:00 +10°C° 0.1 mm 3 mps 757 mmHg 77%
    01:00 +10°C° 0 mm 3 mps 756 mmHg 78%
    02:00 +9°C° 0 mm 3 mps 755 mmHg 79%
    03:00 +8°C° 0 mm 2 mps 755 mmHg 80%
    04:00 +9°C° 0 mm 2 mps 755 mmHg 79%
    05:00 +9°C° 0 mm 2 mps 754 mmHg 77%
    06:00 +10°C° 0 mm 2 mps 754 mmHg 75%
    07:00 +12°C° 0.1 mm 2 mps 754 mmHg 73%
    08:00 +11°C° 0.1 mm 3 mps 753 mmHg 72%
    09:00 +12°C° 0.1 mm 3 mps 753 mmHg 70%
    10:00 +13°C° 0.1 mm 4 mps 753 mmHg 67%
    11:00 +13°C° 0.1 mm 5 mps 752 mmHg 64%
    12:00 +14°C° 0.1 mm 6 mps 752 mmHg 61%
    13:00 +14°C° 0 mm 6 mps 751 mmHg 61%
    14:00 +14°C° 0 mm 6 mps 751 mmHg 62%
    15:00 +14°C° 0 mm 6 mps 750 mmHg 62%
    16:00 +14°C° 0.1 mm 6 mps 750 mmHg 67%
    17:00 +13°C° 0.1 mm 6 mps 749 mmHg 72%
    18:00 +13°C° 0.1 mm 5 mps 749 mmHg 76%
    19:00 +11°C° 0.3 mm 6 mps 749 mmHg 79%
    20:00 +10°C° 0.3 mm 6 mps 748 mmHg 81%
    21:00 +9°C° 0.3 mm 7 mps 748 mmHg 83%
    22:00 +9°C° 0 mm 7 mps 748 mmHg 83%
    23:00 +9°C° 0 mm 7 mps 748 mmHg 83%

    Tomorrow, 5 June, Friday

    Time Temperature Precipitation Wind Pressure Humidity
    00:00 +9°C° 0 mm 7 mps 748 mmHg 83%
    01:00 +9°C° 0.1 mm 7 mps 747 mmHg 82%
    02:00 +8°C° 0.1 mm 7 mps 747 mmHg 82%
    03:00 +8°C° 0.1 mm 7 mps 747 mmHg 82%
    04:00 +8°C° 0.2 mm 7 mps 747 mmHg 81%
    05:00 +8°C° 0.2 mm 6 mps 747 mmHg 80%
    06:00 +9°C° 0.2 mm 5 mps 747 mmHg 79%
    07:00 +9°C° 0.3 mm 6 mps 747 mmHg 73%
    08:00 +10°C° 0.3 mm 7 mps 747 mmHg 68%
    09:00 +10°C° 0.3 mm 8 mps 746 mmHg 62%
    10:00 +11°C° 0.1 mm 8 mps 746 mmHg 59%
    11:00 +11°C° 0.1 mm 9 mps 746 mmHg 55%
    12:00 +12°C° 0.1 mm 9 mps 746 mmHg 51%
    13:00 +12°C° 0.1 mm 10 mps 746 mmHg 52%
    14:00 +12°C° 0.1 mm 10 mps 746 mmHg 53%
    15:00 +12°C° 0.1 mm 10 mps 745 mmHg 54%
    16:00 +11°C° 0 mm 10 mps 745 mmHg 54%
    17:00 +11°C° 0 mm 10 mps 746 mmHg 54%
    18:00 +9°C° 0 mm 11 mps 746 mmHg 54%
    19:00 +9°C° 0.1 mm 10 mps 746 mmHg 57%
    20:00 +8°C° 0.1 mm 10 mps 746 mmHg 61%
    21:00 +7°C° 0.1 mm 10 mps 747 mmHg 65%
    22:00 +7°C° 0.1 mm 10 mps 746 mmHg 67%
    23:00 +7°C° 0.1 mm 11 mps 746 mmHg 68%

    Day after tomorrow, 6 June, Saturday

    Time Temperature Precipitation Wind Pressure Humidity
    00:00 +6°C° 0.1 mm 11 mps 745 mmHg 70%
    01:00 +5°C° 0.5 mm 12 mps 745 mmHg 76%
    02:00 +5°C° 0.5 mm 12 mps 744 mmHg 82%
    03:00 +5°C° 0.5 mm 13 mps 744 mmHg 88%
    04:00 +5°C° 0.9 mm 12 mps 743 mmHg 89%
    05:00 +7°C° 0.9 mm 12 mps 743 mmHg 89%
    06:00 +7°C° 0.9 mm 12 mps 742 mmHg 89%
    07:00 +8°C° 0.6 mm 12 mps 742 mmHg 85%
    08:00 +9°C° 0.6 mm 11 mps 742 mmHg 81%
    09:00 +11°C° 0.6 mm 10 mps 742 mmHg 77%
    10:00 +11°C° 0.4 mm 10 mps 743 mmHg 76%
    11:00 +11°C° 0.4 mm 10 mps 743 mmHg 76%
    12:00 +11°C° 0.4 mm 10 mps 744 mmHg 75%
    13:00 +12°C° 0.4 mm 9 mps 744 mmHg 72%
    14:00 +12°C° 0.4 mm 8 mps 745 mmHg 69%
    15:00 +13°C° 0.4 mm 8 mps 745 mmHg 66%
    16:00 +14°C° 0.3 mm 7 mps 746 mmHg 69%
    17:00 +12°C° 0.3 mm 7 mps 747 mmHg 71%
    18:00 +12°C° 0.3 mm 7 mps 747 mmHg 73%
    19:00 +13°C° 0.1 mm 6 mps 748 mmHg 77%
    20:00 +11°C° 0.1 mm 6 mps 749 mmHg 80%
    21:00 +10°C° 0.1 mm 5 mps 749 mmHg 83%
    22:00 +10°C° 0 mm 5 mps 750 mmHg 85%
    23:00 +10°C° 0 mm 5 mps 750 mmHg 87%

    7 June, Sunday

    Time Temperature Precipitation Wind Pressure Humidity
    00:00 +10°C° 0 mm 5 mps 750 mmHg 88%
    01:00 +10°C° 0.1 mm 5 mps 750 mmHg 89%
    02:00 +10°C° 0.1 mm 5 mps 750 mmHg 89%
    03:00 +10°C° 0.1 mm 5 mps 751 mmHg 89%
    04:00 +10°C° 0 mm 5 mps 751 mmHg 87%
    05:00 +11°C° 0 mm 4 mps 751 mmHg 86%
    06:00 +12°C° 0 mm 4 mps 752 mmHg 84%
    07:00 +13°C° 0 mm 3 mps 752 mmHg 80%
    08:00 +14°C° 0 mm 3 mps 753 mmHg 75%
    09:00 +16°C° 0 mm 3 mps 753 mmHg 70%
    10:00 +15°C° 0.1 mm 4 mps 754 mmHg 68%
    11:00 +16°C° 0.1 mm 5 mps 754 mmHg 67%
    12:00 +16°C° 0.1 mm 5 mps 754 mmHg 65%
    13:00 +16°C° 0.2 mm 5 mps 755 mmHg 65%
    14:00 +16°C° 0.2 mm 5 mps 755 mmHg 66%
    15:00 +17°C° 0.2 mm 6 mps 756 mmHg 66%
    16:00 +16°C° 0.2 mm 5 mps 756 mmHg 68%
    17:00 +16°C° 0.2 mm 5 mps 757 mmHg 70%
    18:00 +15°C° 0.2 mm 5 mps 757 mmHg 71%
    19:00 +15°C° 0.1 mm 4 mps 758 mmHg 75%
    20:00 +14°C° 0.1 mm 3 mps 759 mmHg 78%
    21:00 +13°C° 0.1 mm 3 mps 760 mmHg 81%
    22:00 +12°C° 0.1 mm 3 mps 760 mmHg 82%
    23:00 +12°C° 0.1 mm 3 mps 761 mmHg 82%

    8 June, Monday

    Time Temperature Precipitation Wind Pressure Humidity
    00:00 +12°C° 0.1 mm 3 mps 761 mmHg 82%
    01:00 +12°C° 0 mm 3 mps 761 mmHg 81%
    02:00 +12°C° 0 mm 2 mps 761 mmHg 81%
    03:00 +12°C° 0 mm 2 mps 762 mmHg 80%
    04:00 +12°C° 0 mm 2 mps 762 mmHg 80%
    05:00 +13°C° 0 mm 2 mps 762 mmHg 79%
    06:00 +13°C° 0 mm 2 mps 763 mmHg 79%
    07:00 +14°C° 0 mm 2 mps 763 mmHg 75%
    08:00 +14°C° 0 mm 2 mps 764 mmHg 71%
    09:00 +14°C° 0 mm 3 mps 764 mmHg 67%
    10:00 +15°C° 0.1 mm 2 mps 764 mmHg 66%
    11:00 +16°C° 0.1 mm 2 mps 764 mmHg 64%
    12:00 +16°C° 0.1 mm 2 mps 764 mmHg 63%
    13:00 +16°C° 0.1 mm 3 mps 764 mmHg 63%
    14:00 +16°C° 0.1 mm 3 mps 764 mmHg 63%
    15:00 +16°C° 0.1 mm 3 mps 765 mmHg 63%
    16:00 +16°C° 0 mm 3 mps 765 mmHg 64%
    17:00 +16°C° 0 mm 3 mps 765 mmHg 65%
    18:00 +16°C° 0 mm 3 mps 765 mmHg 66%
    19:00 +13°C° 0 mm 3 mps 765 mmHg 70%
    20:00 +13°C° 0 mm 2 mps 766 mmHg 75%
    21:00 +12°C° 0 mm 2 mps 766 mmHg 80%
    22:00 +12°C° 0 mm 2 mps 766 mmHg 79%
    23:00 +12°C° 0 mm 2 mps 766 mmHg 78%

    9 June, Tuesday

    Time Temperature Precipitation Wind Pressure Humidity
    00:00 +10°C° 0 mm 2 mps 767 mmHg 77%
    01:00 +10°C° 0 mm 2 mps 766 mmHg 78%
    02:00 +10°C° 0 mm 2 mps 766 mmHg 80%
    03:00 +9°C° 0 mm 2 mps 766 mmHg 81%
    04:00 +10°C° 0 mm 2 mps 766 mmHg 81%
    05:00 +10°C° 0 mm 2 mps 766 mmHg 81%
    06:00 +12°C° 0 mm 2 mps 766 mmHg 80%
    07:00 +13°C° 0 mm 2 mps 766 mmHg 77%
    08:00 +13°C° 0 mm 3 mps 766 mmHg 74%
    09:00 +13°C° 0 mm 3 mps 766 mmHg 70%
    10:00 +14°C° 0 mm 4 mps 766 mmHg 69%
    11:00 +14°C° 0 mm 4 mps 766 mmHg 67%
    12:00 +14°C° 0 mm 4 mps 766 mmHg 65%
    13:00 +14°C° 0 mm 5 mps 765 mmHg 65%
    14:00 +14°C° 0 mm 5 mps 765 mmHg 64%
    15:00 +14°C° 0 mm 5 mps 765 mmHg 64%
    16:00 +13°C° 0 mm 5 mps 764 mmHg 65%
    17:00 +12°C° 0 mm 5 mps 764 mmHg 66%
    18:00 +12°C° 0 mm 5 mps 764 mmHg 67%
    19:00 +12°C° 0 mm 5 mps 764 mmHg 68%
    20:00 +10°C° 0 mm 5 mps 764 mmHg 69%
    21:00 +10°C° 0 mm 5 mps 763 mmHg 70%
    22:00 +10°C° 0.1 mm 5 mps 763 mmHg 74%
    23:00 +10°C° 0.1 mm 5 mps 762 mmHg 78%
    Show more